LAPAN-A3

Last updated on Mon Oct 14 2024 00:02:25 GMT+0000 (Coordinated Universal Time)

1 41603U 16040E 24287.47654115 .00006649 00000+0 25444-3 0 9997 2 41603 97.1424 295.9472 0013204 48.4910 311.7460 15.26802398461262
UTC large
Height (km)
Speed (km/s)
/
Latitude / Longitude
Inclination (degrees)
Orbital Period (minutes)
Azimuth
Elevation
Range (km)
Doppler Factor

Next 0 passes for location: London (51.5072 / 0.1276)

Sorry there are no passes over London.